Weather History for PASI - February, 2013

Change the Weather History Date:

Wednesday, February 13, 2013

  Actual Average Record
Temperature  
Mean Temperature 37 °F -  
Max Temperature 42 °F 41 °F 55 °F (2004)
Min Temperature 33 °F 30 °F 1 °F (1954)
Degree Days  
Heating Degree Days 28    
Moisture  
Dew Point 34 °F    
Average Humidity 91    
Maximum Humidity 100    
Minimum Humidity 70    
Precipitation  
Precipitation 0.18 in - - ()
Sea Level Pressure  
Sea Level Pressure 30.17 in    
Wind  
Wind Speed 8 mph (ESE)    
Max Wind Speed 16 mph    
Max Gust Speed 22 mph    
Visibility 9 miles    
Events Rain , Snow    
Averages and records for this station are not official NWS values.
T = Trace of Precipitation, MM = Missing Value Source: NWS Daily Summary

Daily Weather History Graph

Daily Weather History Graph

Search for Another Location

Airport or City:

Trip Planner

Search our weather history database for the weather conditions in past years. The results will help you decide how hot, cold, wet, or windy it might be!

Date:

Astronomy

Feb. 13, 2013 Rise Set
Actual Time 7:33 AM AKST 4:58 PM AKST
Civil Twilight 6:53 AM AKST 5:39 PM AKST
Nautical Twilight 6:08 AM AKST 6:24 PM AKST
Astronomical Twilight 5:24 AM AKST 7:08 PM AKST
Moon 8:11 AM AKST (2/13) 10:12 PM AKST (2/13)
Length of Visible Light 10h 45m
Length of Day
9h 25m
Waxing Crescent, 15% of the Moon is Illuminated
Feb 13
Waxing Crescent
Feb 17
First Quarter
Feb 25
Full
Mar 4
Last Quarter
Mar 11
New

Hourly Weather History & Observations

Time (AKST) Temp. Windchill Dew Point Humidity Pressure Visibility Wind Dir Wind Speed Gust Speed Precip Events Conditions
12:12 AM 33.8 °F 27.7 °F 33.8 °F 100% 30.15 in 9.0 mi East 6.9 mph - 0.00 in Snow Light Snow
12:53 AM 34.0 °F 28.0 °F 33.1 °F 96% 30.16 in 10.0 mi East 6.9 mph - 0.00 in Snow Light Snow
1:08 AM 33.8 °F 28.6 °F 33.8 °F 100% 30.16 in 6.0 mi East 5.8 mph - 0.01 in Snow Light Snow
1:45 AM 33.8 °F 27.7 °F 33.8 °F 100% 30.17 in 3.0 mi East 6.9 mph - 0.02 in Snow Light Snow
1:53 AM 34.0 °F 26.6 °F 33.1 °F 96% 30.17 in 7.0 mi East 9.2 mph - 0.02 in Snow Light Snow
2:11 AM 33.8 °F 28.6 °F 33.8 °F 100% 30.18 in 10.0 mi East 5.8 mph - 0.00 in Rain Light Rain
3:53 AM 35.1 °F 29.3 °F 33.1 °F 92% 30.18 in 5.0 mi ESE 6.9 mph - 0.01 in Snow Light Snow
4:53 AM 34.0 °F 28.0 °F 33.1 °F 96% 30.17 in 9.0 mi East 6.9 mph - 0.02 in Rain Light Rain
5:35 AM 35.6 °F 30.7 °F 33.8 °F 93% 30.17 in 6.0 mi East 5.8 mph - 0.02 in Rain , Snow Light Rain
5:53 AM 34.0 °F 28.0 °F 33.1 °F 96% 30.17 in 4.0 mi East 6.9 mph - 0.05 in Snow Light Snow
6:00 AM 33.8 °F 29.6 °F 33.8 °F 100% 30.17 in 9.0 mi East 4.6 mph - 0.01 in Rain Light Rain
6:42 AM 35.6 °F 28.6 °F 33.8 °F 93% 30.18 in 10.0 mi East 9.2 mph - 0.01 in   Mostly Cloudy
6:53 AM 35.1 °F 29.3 °F 34.0 °F 96% 30.17 in 10.0 mi East 6.9 mph - 0.01 in   Overcast
7:46 AM 35.6 °F 30.7 °F 33.8 °F 93% 30.20 in 10.0 mi East 5.8 mph - 0.01 in   Overcast
7:53 AM 35.1 °F 30.1 °F 34.0 °F 96% 30.20 in 10.0 mi East 5.8 mph - 0.01 in   Overcast
8:17 AM 35.6 °F 28.6 °F 33.8 °F 93% 30.20 in 10.0 mi East 9.2 mph - N/A   Overcast
8:53 AM 36.0 °F 29.0 °F 35.1 °F 97% 30.20 in 10.0 mi East 9.2 mph - N/A   Overcast
9:53 AM 36.0 °F 29.0 °F 34.0 °F 93% 30.21 in 8.0 mi ESE 9.2 mph - 0.02 in Rain Light Rain
10:53 AM 37.0 °F 30.4 °F 35.1 °F 93% 30.22 in 10.0 mi ESE 9.2 mph - 0.01 in Rain Light Rain
11:10 AM 37.4 °F 30.8 °F 35.6 °F 93% 30.22 in 10.0 mi East 9.2 mph - 0.00 in   Overcast
11:18 AM 37.4 °F 31.4 °F 35.6 °F 93% 30.21 in 10.0 mi East 8.1 mph - 0.00 in   Overcast
11:31 AM 37.4 °F 30.8 °F 35.6 °F 93% 30.21 in 10.0 mi ESE 9.2 mph - 0.00 in Rain Light Rain
11:41 AM 37.4 °F 31.4 °F 35.6 °F 93% 30.21 in 10.0 mi East 8.1 mph - 0.00 in   Mostly Cloudy
11:53 AM 37.9 °F 30.5 °F 36.0 °F 93% 30.22 in 10.0 mi SE 11.5 mph - 0.00 in   Overcast
12:00 PM 37.4 °F 30.3 °F 35.6 °F 93% 30.22 in 6.0 mi ESE 10.4 mph - 0.01 in Rain Rain
12:10 PM 37.4 °F 30.3 °F 35.6 °F 93% 30.21 in 10.0 mi ESE 10.4 mph - 0.01 in   Overcast
12:53 PM 37.9 °F 31.5 °F 35.1 °F 89% 30.21 in 10.0 mi SE 9.2 mph - 0.01 in   Mostly Cloudy
1:11 PM 37.4 °F 30.8 °F 35.6 °F 93% 30.21 in 8.0 mi ESE 9.2 mph - 0.01 in Rain Light Rain
1:53 PM 39.0 °F 32.8 °F 35.1 °F 86% 30.19 in 10.0 mi SE 9.2 mph - 0.02 in Rain Light Rain
2:53 PM 39.0 °F 31.4 °F 34.0 °F 82% 30.17 in 10.0 mi SE 12.7 mph - 0.00 in Rain Light Rain
3:53 PM 39.0 °F 34.0 °F 35.1 °F 86% 30.16 in 10.0 mi ESE 6.9 mph - 0.00 in   Overcast
4:53 PM 37.9 °F 30.9 °F 36.0 °F 93% 30.14 in 10.0 mi ESE 10.4 mph - N/A   Overcast
5:53 PM 39.9 °F 32.9 °F 33.1 °F 77% 30.12 in 10.0 mi ESE 11.5 mph - N/A   Overcast
6:53 PM 39.9 °F 33.4 °F 33.1 °F 77% 30.11 in 10.0 mi ESE 10.4 mph - N/A   Overcast
7:53 PM 39.0 °F 32.3 °F 34.0 °F 82% 30.12 in 10.0 mi ESE 10.4 mph - 0.00 in   Overcast
8:53 PM 39.9 °F 32.5 °F 34.0 °F 79% 30.09 in 10.0 mi ESE 12.7 mph - 0.00 in Rain Light Rain
9:53 PM 39.9 °F 31.8 °F 34.0 °F 79% 30.06 in 10.0 mi ESE 15.0 mph - 0.00 in   Overcast
10:53 PM 41.0 °F 32.8 °F 33.1 °F 73% 30.05 in 10.0 mi ESE 16.1 mph 21.9 mph N/A   Overcast
11:53 PM 42.1 °F 34.2 °F 33.1 °F 70% 30.04 in 10.0 mi ESE 16.1 mph - N/A   Overcast